Showing default

COSMOS 1562, 15001

Orbit data source: Space-Track

COSMOS 1562, 15001 is a payload satellite owned by GUKOS (CIS) in LEO that was launched on Mon, 28 May 1984 UTC via a KOSMOS 11K65M launch vehicle from the Plesetsk Missile And Space Complex (PKMTR). Payload-class satellites include a variety of spacecraft equipped with specific instruments for various scientific and technological missions. These include communications satellites like Starlink; space stations such as the ISS; scientific satellites like the Hubble; Earth observation satellites from companies like Planet Labs, Umbra, and HawkEye 360; GPS; miniature CubeSats for education and research; and military/defense satellites.

Loading next visibility...
Identifier
15001, 1984-052D
Orbit
LEO
Country
Flag of CISCIS
Related business
Manufacturer
NPO PM
Mission
Spacecraft
Bus & Motor
STRELA-1 11F625, Unknown motor
Mass
60 kg wet, 60 kg dry
Launch date (UTC)
1984-05-28 (42 years ago)
Launch vehicle
KOSMOS 11K65M
Launch site
Plesetsk Missile And Space Complex (PKMTR)
Object type
Payload
Rocket body
Debris
Shape & HBR
Unknown
Radar Cross Section
Medium (>0.1 m² and <1 m²)

Expand to show TLE details & history
Last TLE update: 4 hours ago

TLE from 4 hours ago
0 COSMOS 1562
1 15001U 84052D   26127.15497175 -.00000007  00000-0  61005-4 0  9997
2 15001  74.0153  10.7797 0015308 185.8554 330.6079 12.49965063913650
Epoch: 2026-05-07T03:43Z
TLE epoch observation values (Epoch: 2026-05-07T03:43:09.559Z)
Latitude
22.67911°
Longitude
-96.8564°
Altitude
1,456.439 km
Speed
7.141 km/s
True Right ascension
12h 15m 45s
True Declination
22° 34' 05"
Sunlit
Object was in daylight at epoch
Visualization orbit readout
Latitude
Unknown
Longitude
Unknown
Altitude
Unknown
Speed
Unknown
Apparent Right ascension
Unknown
Apparent Declination
Unknown
Sunlit
N/A
Visualization observer readout
Local Sidereal Time
15:55:11
Azimuth
Unknown
Elevation
Unknown
Doppler factor
Unknown
Orbital elements
Apogee altitude
1,474.48 km
Perigee altitude
1,450.475 km
Semi-major axis
7,840.614 km
Eccentricity
0.00153
Inclination
74.0153°
RAAN
10.7797°
Arg. of periapsis
185.8554°
True anomaly
330.52166°
Mean anomaly
330.6079°
Eccentric anomaly
330.5648°
Mean motion
3.12621 °/min
Orbital period
115.16 mins
BSTAR
0.000061005
Loading maneuver chart data...
Computing Atmospheric mass density...
Loading historical data...
Loading historical data...
Loading historical data...
Loading historical data...
Loading historical data...
Loading historical data...
Loading historical data...

Documentation

Showing up to 5 results
|